This is the latest recevied weather packets stored in our database for station/object LZ1ASO-10. If no packets are shown the sender has not sent any weather packets the latest 10 day(s).
| Time | Temp. | Humidity | Pressure | Rain* | Wind** | Luminosity | Snow |
|---|---|---|---|---|---|---|---|
| 1777965167 | 18.33° C | 33% | 1017.4 hPa | - | - | - | - |
| 1777964267 | 17.78° C | 34% | 1017.2 hPa | - | - | - | - |
| 1777963367 | 17.78° C | 35% | 1017.2 hPa | - | - | - | - |
| 1777962467 | 17.22° C | 35% | 1017.2 hPa | - | - | - | - |
| 1777961567 | 16.67° C | 35% | 1017.1 hPa | - | - | - | - |
| 1777960667 | 16.11° C | 36% | 1017 hPa | - | - | - | - |
| 1777959766 | 15.56° C | 36% | 1016.9 hPa | - | - | - | - |
| 1777958866 | 15.56° C | 37% | 1016.8 hPa | - | - | - | - |
| 1777957966 | 15° C | 38% | 1016.7 hPa | - | - | - | - |
| 1777957066 | 15° C | 37% | 1016.6 hPa | - | - | - | - |
| 1777956166 | 15° C | 37% | 1016.5 hPa | - | - | - | - |
| 1777955266 | 14.44° C | 37% | 1016.4 hPa | - | - | - | - |
| 1777954366 | 14.44° C | 37% | 1016.4 hPa | - | - | - | - |
| 1777953466 | 14.44° C | 37% | 1016.2 hPa | - | - | - | - |
| 1777952565 | 13.89° C | 37% | 1016.2 hPa | - | - | - | - |
| 1777951665 | 13.89° C | 37% | 1016 hPa | - | - | - | - |
| 1777950765 | 13.89° C | 37% | 1015.8 hPa | - | - | - | - |
| 1777949865 | 13.89° C | 37% | 1015.8 hPa | - | - | - | - |
| 1777948965 | 13.89° C | 37% | 1015.8 hPa | - | - | - | - |
| 1777948065 | 14.44° C | 37% | 1015.7 hPa | - | - | - | - |
| 1777947165 | 14.44° C | 37% | 1015.7 hPa | - | - | - | - |
| 1777946265 | 14.44° C | 37% | 1015.8 hPa | - | - | - | - |
| 1777945365 | 14.44° C | 37% | 1015.9 hPa | - | - | - | - |
| 1777944464 | 14.44° C | 37% | 1015.9 hPa | - | - | - | - |
| 1777943563 | 14.44° C | 37% | 1015.8 hPa | - | - | - | - |
* Rain since midnight (hover to see other rain measurements)
** Current wind speed in m/s (hover to see current wind gust speed)